| time (UTC) | temp C | wind direction | speed KPH | gust KPH | rain 1hr cm | rain 24hr cm | rain mn cm | humidity % | barometer mb |
| 20260906173444 | 25 | 163 | 6.4 | 11.3 | 0.00 | 0.00 | 0.00 | 75 | 1018.0 |
| 20260906172945 | 25 | 119 | 6.4 | 16.1 | 0.00 | 0.00 | 0.00 | 75 | 1018.0 |
| 20260906172452 | 25 | 141 | 6.4 | 16.1 | 0.00 | 0.00 | 0.00 | 75 | 1018.0 |
| 20260906171939 | 25 | 86 | 6.4 | 14.5 | 0.00 | 0.00 | 0.00 | 75 | 1018.0 |
| 20260906171158 | 25 | 136 | 6.4 | 12.9 | 0.00 | 0.00 | 0.00 | 75 | 1018.0 |
| 20260906170438 | 25 | 131 | 6.4 | 16.1 | 0.00 | 0.00 | 0.00 | 76 | 1018.1 |
| 20260906165938 | 25 | 125 | 6.4 | 16.1 | 0.00 | 0.00 | 0.00 | 75 | 1018.2 |
| 20260906165437 | 25 | 165 | 6.4 | 16.1 | 0.00 | 0.00 | 0.00 | 77 | 1018.3 |
| 20260906164939 | 25 | 163 | 6.4 | 16.1 | 0.00 | 0.00 | 0.00 | 76 | 1018.4 |
| 20260906164440 | 25 | 151 | 6.4 | 16.1 | 0.00 | 0.00 | 0.00 | 77 | 1018.3 |
| 20260906163938 | 25 | 199 | 4.8 | 14.5 | 0.00 | 0.00 | 0.00 | 77 | 1018.4 |
| 20260906163437 | 25 | 145 | 4.8 | 12.9 | 0.00 | 0.00 | 0.00 | 76 | 1018.4 |
| 20260906162937 | 25 | 94 | 4.8 | 12.9 | 0.00 | 0.00 | 0.00 | 78 | 1018.4 |
| 20260906162436 | 24 | 167 | 4.8 | 11.3 | 0.00 | 0.00 | 0.00 | 78 | 1018.4 |
| 20260906161936 | 24 | 163 | 4.8 | 11.3 | 0.00 | 0.00 | 0.00 | 79 | 1018.4 |
| 20260906161436 | 24 | 120 | 4.8 | 12.9 | 0.00 | 0.00 | 0.00 | 79 | 1018.5 |
| 20260906160938 | 24 | 148 | 4.8 | 17.7 | 0.00 | 0.00 | 0.00 | 78 | 1018.5 |
| 20260906160434 | 24 | 148 | 4.8 | 17.7 | 0.00 | 0.00 | 0.00 | 79 | 1018.5 |
| 20260906155934 | 24 | 144 | 6.4 | 16.1 | 0.00 | 0.00 | 0.00 | 79 | 1018.4 |
| 20260906155658 | 24 | 76 | 6.4 | 14.5 | 0.00 | 0.00 | 0.00 | 80 | 1018.4 |
| 20260906154930 | 23 | 158 | 4.8 | 14.5 | 0.00 | 0.00 | 0.00 | 80 | 1018.5 |
| 20260906154429 | 23 | 64 | 4.8 | 14.5 | 0.00 | 0.00 | 0.00 | 80 | 1018.5 |
| 20260906153931 | 23 | 148 | 4.8 | 12.9 | 0.00 | 0.00 | 0.00 | 82 | 1018.5 |
| 20260906153429 | 23 | 161 | 4.8 | 12.9 | 0.00 | 0.00 | 0.00 | 84 | 1018.5 |
| 20260906152930 | 23 | 135 | 6.4 | 14.5 | 0.00 | 0.00 | 0.00 | 84 | 1018.5 |
| 20260906152426 | 23 | 156 | 6.4 | 14.5 | 0.00 | 0.00 | 0.00 | 84 | 1018.7 |
| 20260906151926 | 22 | 144 | 6.4 | 12.9 | 0.00 | 0.00 | 0.00 | 85 | 1018.8 |
| 20260906151426 | 22 | 134 | 6.4 | 12.9 | 0.00 | 0.00 | 0.00 | 86 | 1018.8 |
| 20260906150926 | 22 | 156 | 4.8 | 14.5 | 0.00 | 0.00 | 0.00 | 86 | 1018.8 |
| 20260906150427 | 22 | 149 | 4.8 | 16.1 | 0.00 | 0.00 | 0.00 | 86 | 1018.8 |
| 20260906145926 | 22 | 111 | 6.4 | 19.3 | 0.00 | 0.00 | 0.00 | 86 | 1018.7 |
| 20260906145426 | 22 | 147 | 6.4 | 19.3 | 0.00 | 0.00 | 0.00 | 86 | 1018.6 |
| 20260906144426 | 22 | 130 | 4.8 | 14.5 | 0.00 | 0.00 | 0.00 | 86 | 1018.5 |
| 20260906143926 | 22 | 144 | 6.4 | 14.5 | 0.00 | 0.00 | 0.00 | 86 | 1018.5 |
| 20260906143426 | 22 | 157 | 6.4 | 14.5 | 0.00 | 0.00 | 0.00 | 86 | 1018.5 |
| 20260906142927 | 22 | 156 | 4.8 | 12.9 | 0.00 | 0.00 | 0.00 | 87 | 1018.4 |
| 20260906142426 | 22 | 119 | 4.8 | 12.9 | 0.00 | 0.00 | 0.00 | 87 | 1018.5 |
| 20260906141927 | 22 | 146 | 4.8 | 11.3 | 0.00 | 0.00 | 0.00 | 88 | 1018.5 |
| 20260906141425 | 22 | 150 | 3.2 | 9.7 | 0.00 | 0.00 | 0.00 | 88 | 1018.6 |
| 20260906140925 | 22 | 132 | 3.2 | 9.7 | 0.00 | 0.00 | 0.00 | 89 | 1018.6 |
| 20260906140426 | 21 | 146 | 4.8 | 12.9 | 0.00 | 0.00 | 0.00 | 89 | 1018.5 |
| 20260906135926 | 21 | 134 | 4.8 | 12.9 | 0.00 | 0.00 | 0.00 | 89 | 1018.4 |
| 20260906135426 | 21 | 155 | 4.8 | 12.9 | 0.00 | 0.00 | 0.00 | 90 | 1018.4 |
| 20260906135148 | 21 | 152 | 3.2 | 9.7 | 0.00 | 0.00 | 0.00 | 91 | 1018.4 |
| 20260906134426 | 21 | 138 | 3.2 | 9.7 | 0.00 | 0.00 | 0.00 | 92 | 1018.4 |
| 20260906133926 | 21 | 155 | 3.2 | 11.3 | 0.00 | 0.00 | 0.00 | 92 | 1018.3 |
| 20260906133426 | 21 | 165 | 3.2 | 11.3 | 0.00 | 0.00 | 0.00 | 93 | 1018.2 |
| 20260906132927 | 21 | 172 | 3.2 | 9.7 | 0.00 | 0.00 | 0.00 | 93 | 1018.2 |
| 20260906132427 | 21 | 167 | 3.2 | 11.3 | 0.00 | 0.00 | 0.00 | 94 | 1018.2 |
| 20260906131926 | 21 | 132 | 3.2 | 11.3 | 0.00 | 0.00 | 0.00 | 94 | 1018.1 |
| 20260906131426 | 20 | 173 | 1.6 | 8.0 | 0.00 | 0.00 | 0.00 | 94 | 1018.0 |
| 20260906130925 | 20 | 114 | 1.6 | 11.3 | 0.00 | 0.00 | 0.00 | 94 | 1017.9 |
| 20260906130438 | 20 | 128 | 3.2 | 11.3 | 0.00 | 0.00 | 0.00 | 94 | 1018.0 |
| 20260906125925 | 20 | 102 | 3.2 | 12.9 | 0.00 | 0.00 | 0.00 | 94 | 1018.0 |
| 20260906125427 | 20 | 100 | 3.2 | 12.9 | 0.00 | 0.00 | 0.00 | 94 | 1017.9 |
| 20260906124925 | 20 | 163 | 3.2 | 9.7 | 0.00 | 0.00 | 0.00 | 94 | 1017.9 |
| 20260906124425 | 20 | 143 | 3.2 | 9.7 | 0.00 | 0.00 | 0.00 | 94 | 1017.9 |
| 20260906123926 | 20 | 65 | 3.2 | 8.0 | 0.00 | 0.00 | 0.00 | 94 | 1017.9 |
| 20260906123422 | 20 | 84 | 1.6 | 9.7 | 0.00 | 0.00 | 0.00 | 94 | 1017.9 |
| 20260906122923 | 20 | 142 | 1.6 | 9.7 | 0.00 | 0.00 | 0.00 | 94 | 1017.9 |
| 20260906122420 | 20 | 86 | 1.6 | 4.8 | 0.00 | 0.00 | 0.00 | 93 | 1017.9 |
| 20260906121920 | 20 | 121 | 1.6 | 6.4 | 0.00 | 0.00 | 0.00 | 93 | 1017.9 |
| 20260906121420 | 20 | 126 | 1.6 | 6.4 | 0.00 | 0.00 | 0.00 | 93 | 1017.8 |
| 20260906120920 | 20 | 123 | 1.6 | 4.8 | 0.00 | 0.00 | 0.00 | 93 | 1017.8 |
| 20260906120642 | 20 | 143 | 0.0 | 3.2 | 0.00 | 0.00 | 0.00 | 93 | 1017.7 |
| 20260906120142 | 20 | 143 | 0.0 | 4.8 | 0.00 | 0.00 | 0.00 | 93 | 1017.6 |
| 20260906115414 | 20 | 140 | 1.6 | 4.8 | 0.00 | 0.00 | 0.00 | 93 | 1017.6 |
| 20260906114913 | 20 | 142 | 0.0 | 4.8 | 0.00 | 0.00 | 0.00 | 93 | 1017.6 |
| 20260906114412 | 20 | 144 | 0.0 | 4.8 | 0.00 | 0.00 | 0.00 | 93 | 1017.8 |
| 20260906113911 | 20 | 148 | 0.0 | 1.6 | 0.00 | 0.00 | 0.00 | 93 | 1017.7 |
| 20260906113851 | 20 | 147 | 0.0 | 6.4 | 0.00 | 0.00 | 0.00 | 93 | 1017.4 |
| 20260906112911 | 20 | 147 | 0.0 | 6.4 | 0.00 | 0.00 | 0.00 | 92 | 1017.4 |
| 20260906112407 | 20 | 143 | 1.6 | 4.8 | 0.00 | 0.00 | 0.00 | 92 | 1017.3 |
| 20260906112357 | 20 | 143 | 0.0 | 4.8 | 0.00 | 0.00 | 0.00 | 92 | 1017.3 |
| 20260906111409 | 20 | 144 | 0.0 | 4.8 | 0.00 | 0.00 | 0.00 | 92 | 1017.3 |
| 20260906111347 | 20 | 154 | 1.6 | 4.8 | 0.00 | 0.00 | 0.00 | 92 | 1017.2 |
| 20260906110421 | 20 | 163 | 1.6 | 4.8 | 0.00 | 0.00 | 0.00 | 92 | 1017.1 |
| 20260906105906 | 21 | 163 | 0.0 | 3.2 | 0.00 | 0.00 | 0.00 | 92 | 1017.1 |
| 20260906105407 | 21 | 161 | 1.6 | 3.2 | 0.00 | 0.00 | 0.00 | 92 | 1017.1 |
| 20260906104905 | 21 | 161 | 1.6 | 3.2 | 0.00 | 0.00 | 0.00 | 92 | 1017.2 |
| 20260906104403 | 21 | 162 | 0.0 | 3.2 | 0.00 | 0.00 | 0.00 | 92 | 1017.1 |
| 20260906103904 | 21 | 163 | 0.0 | 1.6 | 0.00 | 0.00 | 0.00 | 92 | 1017.1 |
| 20260906103403 | 21 | 162 | 0.0 | 3.2 | 0.00 | 0.00 | 0.00 | 92 | 1017.1 |
| 20260906102901 | 21 | 162 | 0.0 | 3.2 | 0.00 | 0.00 | 0.00 | 91 | 1017.1 |
| 20260906102358 | 21 | 162 | 1.6 | 6.4 | 0.00 | 0.00 | 0.00 | 91 | 1017.0 |
| 20260906101855 | 21 | 162 | 1.6 | 6.4 | 0.00 | 0.00 | 0.00 | 91 | 1017.1 |
| 20260906101616 | 21 | 163 | 0.0 | 3.2 | 0.00 | 0.00 | 0.00 | 91 | 1017.1 |
| 20260906101117 | 21 | 164 | 0.0 | 6.4 | 0.00 | 0.00 | 0.00 | 91 | 1017.0 |
| 20260906100837 | 21 | 159 | 1.6 | 6.4 | 0.00 | 0.00 | 0.00 | 91 | 1016.9 |
| 20260906095849 | 21 | 157 | 3.2 | 9.7 | 0.00 | 0.00 | 0.00 | 91 | 1016.9 |
| 20260906095347 | 21 | 143 | 1.6 | 9.7 | 0.00 | 0.00 | 0.00 | 91 | 1016.7 |
| 20260906094849 | 21 | 161 | 1.6 | 8.0 | 0.00 | 0.00 | 0.00 | 91 | 1016.5 |
| 20260906094346 | 21 | 163 | 1.6 | 12.9 | 0.00 | 0.00 | 0.00 | 91 | 1016.3 |
| 20260906093844 | 21 | 197 | 3.2 | 12.9 | 0.00 | 0.00 | 0.00 | 91 | 1016.3 |
| 20260906093603 | 21 | 132 | 3.2 | 11.3 | 0.00 | 0.00 | 0.00 | 90 | 1016.3 |
| 20260906092844 | 21 | 139 | 3.2 | 9.7 | 0.00 | 0.00 | 0.00 | 90 | 1016.2 |
| 20260906092344 | 21 | 143 | 4.8 | 9.7 | 0.00 | 0.00 | 0.00 | 90 | 1016.2 |
| 20260906091843 | 21 | 109 | 3.2 | 8.0 | 0.00 | 0.00 | 0.00 | 90 | 1016.2 |
| 20260906091343 | 21 | 155 | 3.2 | 9.7 | 0.00 | 0.00 | 0.00 | 90 | 1016.3 |
| 20260906090840 | 21 | 164 | 3.2 | 11.3 | 0.00 | 0.00 | 0.00 | 90 | 1016.3 |
| 20260906090341 | 21 | 153 | 3.2 | 11.3 | 0.00 | 0.00 | 0.00 | 90 | 1016.3 |
| 20260906090059 | 21 | 173 | 1.6 | 11.3 | 0.00 | 0.00 | 0.00 | 90 | 1016.3 |
| 20260906085336 | 21 | 103 | 1.6 | 11.3 | 0.00 | 0.00 | 0.00 | 90 | 1016.4 |
| 20260906084835 | 21 | 85 | 3.2 | 11.3 | 0.00 | 0.00 | 0.00 | 89 | 1016.2 |
| 20260906084556 | 21 | 161 | 3.2 | 8.0 | 0.00 | 0.00 | 0.00 | 89 | 1016.2 |
| 20260906083834 | 21 | 195 | 3.2 | 14.5 | 0.00 | 0.00 | 0.00 | 89 | 1016.2 |
| 20260906083335 | 21 | 90 | 3.2 | 14.5 | 0.00 | 0.00 | 0.00 | 89 | 1016.2 |
| 20260906082834 | 21 | 79 | 1.6 | 9.7 | 0.00 | 0.00 | 0.00 | 89 | 1016.2 |
| 20260906082553 | 21 | 74 | 1.6 | 8.0 | 0.00 | 0.00 | 0.00 | 88 | 1016.2 |
| 20260906081833 | 21 | 114 | 3.2 | 14.5 | 0.00 | 0.00 | 0.00 | 88 | 1016.3 |
| 20260906081333 | 21 | 92 | 3.2 | 14.5 | 0.00 | 0.00 | 0.00 | 88 | 1016.3 |
| 20260906080833 | 21 | 85 | 3.2 | 12.9 | 0.00 | 0.00 | 0.00 | 88 | 1016.3 |
| 20260906080335 | 22 | 98 | 3.2 | 12.9 | 0.00 | 0.00 | 0.00 | 88 | 1016.2 |
| 20260906075834 | 22 | 75 | 3.2 | 12.9 | 0.00 | 0.00 | 0.00 | 88 | 1016.2 |
| 20260906075328 | 22 | 97 | 3.2 | 11.3 | 0.00 | 0.00 | 0.00 | 88 | 1016.1 |
| 20260906074829 | 22 | 98 | 3.2 | 11.3 | 0.00 | 0.00 | 0.00 | 88 | 1016.2 |
| 20260906074330 | 22 | 59 | 1.6 | 8.0 | 0.00 | 0.00 | 0.00 | 88 | 1016.3 |
| 20260906073829 | 22 | 94 | 1.6 | 6.4 | 0.00 | 0.00 | 0.00 | 88 | 1016.3 |
| 20260906073330 | 22 | 91 | 1.6 | 9.7 | 0.00 | 0.00 | 0.00 | 88 | 1016.4 |
| 20260906073045 | 22 | 98 | 1.6 | 9.7 | 0.00 | 0.00 | 0.00 | 88 | 1016.4 |
| 20260906072328 | 22 | 99 | 1.6 | 6.4 | 0.00 | 0.00 | 0.00 | 88 | 1016.4 |
| 20260906071826 | 22 | 160 | 1.6 | 6.4 | 0.00 | 0.00 | 0.00 | 87 | 1016.4 |
| 20260906071324 | 22 | 108 | 1.6 | 4.8 | 0.00 | 0.00 | 0.00 | 87 | 1016.4 |
| 20260906070824 | 22 | 109 | 1.6 | 4.8 | 0.00 | 0.00 | 0.00 | 87 | 1016.5 |
| 20260906070321 | 22 | 111 | 1.6 | 3.2 | 0.00 | 0.00 | 0.00 | 87 | 1016.7 |
| 20260906070047 | 22 | 109 | 1.6 | 6.4 | 0.00 | 0.00 | 0.00 | 87 | 1016.7 |
| 20260906065319 | 22 | 74 | 1.6 | 6.4 | 0.00 | 0.00 | 0.00 | 87 | 1016.7 |
| 20260906064819 | 22 | 132 | 1.6 | 4.8 | 0.00 | 0.00 | 0.00 | 87 | 1016.6 |
| 20260906064319 | 22 | 132 | 1.6 | 9.7 | 0.00 | 0.00 | 0.00 | 87 | 1016.6 |
| 20260906063817 | 22 | 92 | 1.6 | 9.7 | 0.00 | 0.00 | 0.00 | 87 | 1016.5 |
| 20260906063311 | 22 | 146 | 1.6 | 4.8 | 0.00 | 0.00 | 0.00 | 87 | 1016.6 |
| 20260906062806 | 22 | 153 | 0.0 | 4.8 | 0.00 | 0.00 | 0.00 | 86 | 1016.6 |
| 20260906062306 | 22 | 95 | 0.0 | 4.8 | 0.00 | 0.00 | 0.00 | 86 | 1016.7 |
| 20260906061804 | 22 | 92 | 1.6 | 4.8 | 0.00 | 0.00 | 0.00 | 86 | 1016.6 |
| 20260906061303 | 22 | 86 | 1.6 | 4.8 | 0.00 | 0.00 | 0.00 | 86 | 1016.6 |
| 20260906060759 | 22 | 84 | 1.6 | 8.0 | 0.00 | 0.00 | 0.00 | 86 | 1016.8 |
| 20260906060300 | 22 | 80 | 1.6 | 8.0 | 0.00 | 0.00 | 0.00 | 86 | 1016.7 |
| 20260906055759 | 22 | 117 | 0.0 | 4.8 | 0.00 | 0.00 | 0.00 | 86 | 1016.7 |
| 20260906055259 | 22 | 130 | 0.0 | 3.2 | 0.00 | 0.00 | 0.00 | 86 | 1016.6 |
| 20260906054756 | 22 | 130 | 0.0 | 3.2 | 0.00 | 0.00 | 0.00 | 86 | 1016.6 |
| 20260906054256 | 22 | 129 | 0.0 | 3.2 | 0.00 | 0.00 | 0.00 | 86 | 1016.6 |
| 20260906053756 | 22 | 129 | 0.0 | 3.2 | 0.00 | 0.00 | 0.00 | 86 | 1016.6 |
| 20260906053517 | 22 | 126 | 0.0 | 1.6 | 0.00 | 0.00 | 0.00 | 86 | 1016.5 |
| 20260906052750 | 22 | 128 | 0.0 | 3.2 | 0.00 | 0.00 | 0.00 | 86 | 1016.5 |
| 20260906052249 | 22 | 159 | 0.0 | 3.2 | 0.00 | 0.00 | 0.00 | 86 | 1016.6 |
| 20260906051752 | 22 | 158 | 0.0 | 1.6 | 0.00 | 0.00 | 0.00 | 86 | 1016.6 |
| 20260906051509 | 22 | 158 | 0.0 | 0.0 | 0.00 | 0.00 | 0.00 | 85 | 1016.7 |
| 20260906050749 | 22 | 158 | 0.0 | 1.6 | 0.00 | 0.00 | 0.00 | 85 | 1016.8 |
| 20260906050249 | 22 | 158 | 0.0 | 1.6 | 0.00 | 0.00 | 0.00 | 85 | 1016.8 |
| 20260906045744 | 22 | 158 | 0.0 | 1.6 | 0.00 | 0.00 | 0.00 | 85 | 1016.8 |
| 20260906045243 | 22 | 158 | 0.0 | 1.6 | 0.00 | 0.00 | 0.00 | 85 | 1016.7 |
| 20260906044743 | 22 | 158 | 0.0 | 1.6 | 0.00 | 0.00 | 0.00 | 85 | 1016.7 |
| 20260906044243 | 22 | 158 | 0.0 | 1.6 | 0.00 | 0.00 | 0.00 | 85 | 1016.8 |
| 20260906043743 | 22 | 158 | 0.0 | 0.0 | 0.00 | 0.00 | 0.00 | 85 | 1016.9 |
| 20260906043502 | 22 | 158 | 0.0 | 1.6 | 0.00 | 0.00 | 0.00 | 84 | 1016.9 |
| 20260906042742 | 22 | 158 | 0.0 | 1.6 | 0.00 | 0.00 | 0.00 | 84 | 1017.0 |
| 20260906042242 | 23 | 158 | 0.0 | 0.0 | 0.00 | 0.00 | 0.00 | 84 | 1017.0 |
| 20260906041744 | 23 | 158 | 0.0 | 0.0 | 0.00 | 0.00 | 0.00 | 84 | 1017.0 |
| 20260906041255 | 23 | 158 | 0.0 | 0.0 | 0.00 | 0.00 | 0.00 | 84 | 1016.9 |
| 20260906040755 | 23 | 158 | 0.0 | 0.0 | 0.00 | 0.00 | 0.00 | 84 | 1016.9 |
| 20260906040243 | 23 | 158 | 0.0 | 0.0 | 0.00 | 0.00 | 0.00 | 84 | 1017.0 |
| 20260906035743 | 23 | 158 | 0.0 | 0.0 | 0.00 | 0.00 | 0.00 | 83 | 1017.0 |
| 20260906035242 | 23 | 158 | 0.0 | 0.0 | 0.00 | 0.00 | 0.00 | 83 | 1017.1 |
| 20260906034745 | 23 | 158 | 0.0 | 0.0 | 0.00 | 0.00 | 0.00 | 83 | 1017.1 |
| 20260906034245 | 23 | 158 | 0.0 | 0.0 | 0.00 | 0.00 | 0.00 | 82 | 1017.1 |
| 20260906033744 | 23 | 158 | 0.0 | 0.0 | 0.00 | 0.00 | 0.00 | 82 | 1017.0 |
| 20260906033257 | 23 | 158 | 0.0 | 0.0 | 0.00 | 0.00 | 0.00 | 81 | 1017.0 |
| 20260906032743 | 23 | 158 | 0.0 | 0.0 | 0.00 | 0.00 | 0.00 | 81 | 1017.0 |
| 20260906032243 | 23 | 158 | 0.0 | 0.0 | 0.00 | 0.00 | 0.00 | 81 | 1016.9 |
| 20260906031744 | 23 | 158 | 0.0 | 0.0 | 0.00 | 0.00 | 0.00 | 80 | 1017.0 |
| 20260906031243 | 23 | 158 | 0.0 | 0.0 | 0.00 | 0.00 | 0.00 | 80 | 1017.0 |
| 20260906030742 | 23 | 158 | 0.0 | 0.0 | 0.00 | 0.00 | 0.00 | 80 | 1017.0 |
| 20260906030255 | 24 | 158 | 0.0 | 0.0 | 0.00 | 0.00 | 0.00 | 79 | 1017.1 |
| 20260906025742 | 24 | 158 | 0.0 | 0.0 | 0.00 | 0.00 | 0.00 | 79 | 1017.1 |
| 20260906025242 | 24 | 158 | 0.0 | 0.0 | 0.00 | 0.00 | 0.00 | 79 | 1017.1 |
| 20260906024744 | 24 | 158 | 0.0 | 0.0 | 0.00 | 0.00 | 0.00 | 79 | 1017.2 |
| 20260906024243 | 24 | 158 | 0.0 | 0.0 | 0.00 | 0.00 | 0.00 | 78 | 1017.1 |
| 20260906023744 | 24 | 158 | 0.0 | 1.6 | 0.00 | 0.00 | 0.00 | 78 | 1017.0 |
| 20260906023240 | 24 | 158 | 0.0 | 1.6 | 0.00 | 0.00 | 0.00 | 77 | 1016.8 |
| 20260906023232 | 24 | 158 | 0.0 | 3.2 | 0.00 | 0.00 | 0.00 | 77 | 1016.7 |
| 20260906022240 | 24 | 158 | 1.6 | 3.2 | 0.00 | 0.00 | 0.00 | 77 | 1016.6 |
| 20260906021740 | 24 | 158 | 1.6 | 3.2 | 0.00 | 0.00 | 0.00 | 77 | 1016.4 |
| 20260906021241 | 24 | 158 | 1.6 | 4.8 | 0.00 | 0.00 | 0.00 | 77 | 1016.5 |
| 20260906020741 | 24 | 158 | 1.6 | 6.4 | 0.00 | 0.00 | 0.00 | 76 | 1016.4 |
| 20260906020239 | 24 | 158 | 1.6 | 6.4 | 0.00 | 0.00 | 0.00 | 76 | 1016.3 |
| 20260906015742 | 25 | 148 | 0.0 | 3.2 | 0.00 | 0.00 | 0.00 | 75 | 1016.2 |
| 20260906015238 | 25 | 155 | 1.6 | 4.8 | 0.00 | 0.00 | 0.00 | 75 | 1016.0 |
| 20260906014738 | 25 | 155 | 1.6 | 11.3 | 0.00 | 0.00 | 0.00 | 75 | 1015.8 |
| 20260906014241 | 25 | 136 | 3.2 | 12.9 | 0.00 | 0.00 | 0.00 | 75 | 1015.6 |
| 20260906013738 | 25 | 153 | 4.8 | 12.9 | 0.00 | 0.00 | 0.00 | 75 | 1015.4 |
| 20260906013236 | 25 | 141 | 4.8 | 9.7 | 0.00 | 0.00 | 0.00 | 75 | 1015.4 |
| 20260906012938 | 25 | 145 | 6.4 | 14.5 | 0.00 | 0.00 | 0.00 | 74 | 1015.2 |
| 20260906012834 | 25 | 159 | 4.8 | 14.5 | 0.00 | 0.00 | 0.00 | 74 | 1015.3 |
| 20260906011736 | 26 | 123 | 6.4 | 12.9 | 0.00 | 0.00 | 0.00 | 74 | 1015.0 |
| 20260906011238 | 26 | 143 | 4.8 | 14.5 | 0.00 | 0.00 | 0.00 | 73 | 1015.0 |
| 20260906010739 | 26 | 148 | 4.8 | 14.5 | 0.00 | 0.00 | 0.00 | 73 | 1015.0 |
| 20260906010236 | 26 | 146 | 4.8 | 9.7 | 0.00 | 0.00 | 0.00 | 72 | 1015.0 |
| 20260906005736 | 26 | 141 | 4.8 | 12.9 | 0.00 | 0.00 | 0.00 | 71 | 1015.0 |
| 20260906005235 | 26 | 157 | 4.8 | 12.9 | 0.00 | 0.00 | 0.00 | 69 | 1014.8 |
| 20260906004735 | 27 | 148 | 4.8 | 12.9 | 0.00 | 0.00 | 0.00 | 69 | 1014.7 |
| 20260906004235 | 27 | 157 | 3.2 | 11.3 | 0.00 | 0.00 | 0.00 | 68 | 1014.5 |
| 20260906003734 | 27 | 115 | 4.8 | 11.3 | 0.00 | 0.00 | 0.00 | 67 | 1014.4 |
| 20260906003246 | 27 | 117 | 4.8 | 9.7 | 0.00 | 0.00 | 0.00 | 66 | 1014.3 |
| 20260906002936 | 27 | 143 | 3.2 | 9.7 | 0.00 | 0.00 | 0.00 | 65 | 1014.2 |
| 20260906002828 | 27 | 145 | 4.8 | 8.0 | 0.00 | 0.00 | 0.00 | 66 | 1014.3 |
| 20260906001729 | 28 | 49 | 3.2 | 9.7 | 0.00 | 0.00 | 0.00 | 64 | 1014.4 |
| 20260906001228 | 28 | 144 | 3.2 | 11.3 | 0.00 | 0.00 | 0.00 | 64 | 1014.6 |
| 20260906000728 | 28 | 84 | 4.8 | 11.3 | 0.00 | 0.00 | 0.00 | 63 | 1014.4 |
| 20260906000455 | 28 | 73 | 4.8 | 16.1 | 0.00 | 0.00 | 0.00 | 62 | 1014.5 |
| 20260905235729 | 28 | 60 | 4.8 | 16.1 | 0.00 | 0.00 | 0.00 | 62 | 1014.4 |
| 20260905235226 | 28 | 159 | 4.8 | 14.5 | 0.00 | 0.00 | 0.00 | 61 | 1014.4 |
| 20260905234726 | 28 | 82 | 4.8 | 14.5 | 0.00 | 0.00 | 0.00 | 61 | 1014.3 |
| 20260905234445 | 28 | 160 | 4.8 | 12.9 | 0.00 | 0.00 | 0.00 | 60 | 1014.2 |
| 20260905233725 | 28 | 165 | 4.8 | 16.1 | 0.00 | 0.00 | 0.00 | 60 | 1014.1 |
| 20260905233225 | 29 | 75 | 6.4 | 17.7 | 0.00 | 0.00 | 0.00 | 60 | 1014.0 |
| 20260905232724 | 29 | 17 | 6.4 | 17.7 | 0.00 | 0.00 | 0.00 | 61 | 1014.0 |
| 20260905232223 | 29 | 81 | 6.4 | 16.1 | 0.00 | 0.00 | 0.00 | 60 | 1013.9 |
| 20260905231724 | 29 | 104 | 6.4 | 20.9 | 0.00 | 0.00 | 0.00 | 60 | 1014.0 |
| 20260905231224 | 29 | 50 | 6.4 | 20.9 | 0.00 | 0.00 | 0.00 | 60 | 1013.9 |
| 20260905230942 | 29 | 71 | 4.8 | 17.7 | 0.00 | 0.00 | 0.00 | 59 | 1013.9 |
| 20260905230220 | 29 | 116 | 4.8 | 12.9 | 0.00 | 0.00 | 0.00 | 60 | 1013.9 |
| 20260905225724 | 29 | 53 | 4.8 | 17.7 | 0.00 | 0.00 | 0.00 | 60 | 1013.7 |
| 20260905225220 | 29 | 123 | 4.8 | 17.7 | 0.00 | 0.00 | 0.00 | 60 | 1013.6 |
| 20260905224720 | 29 | 68 | 4.8 | 16.1 | 0.00 | 0.00 | 0.00 | 60 | 1013.6 |
| 20260905224221 | 29 | 87 | 4.8 | 16.1 | 0.00 | 0.00 | 0.00 | 60 | 1013.6 |
| 20260905223718 | 30 | 73 | 6.4 | 17.7 | 0.00 | 0.00 | 0.00 | 61 | 1013.7 |
| 20260905223447 | 30 | 101 | 4.8 | 17.7 | 0.00 | 0.00 | 0.00 | 60 | 1013.9 |
| 20260905222715 | 30 | 98 | 3.2 | 14.5 | 0.00 | 0.00 | 0.00 | 61 | 1014.0 |
| 20260905222212 | 30 | 269 | 4.8 | 14.5 | 0.00 | 0.00 | 0.00 | 61 | 1014.0 |
| 20260905221658 | 30 | 117 | 4.8 | 14.5 | 0.00 | 0.00 | 0.00 | 60 | 1014.0 |
| 20260905221152 | 30 | 175 | 3.2 | 8.0 | 0.00 | 0.00 | 0.00 | 61 | 1014.0 |
| 20260905220917 | 30 | 104 | 3.2 | 16.1 | 0.00 | 0.00 | 0.00 | 60 | 1014.0 |
| 20260905220150 | 30 | 44 | 4.8 | 16.1 | 0.00 | 0.00 | 0.00 | 59 | 1013.9 |
| 20260905215650 | 30 | 70 | 4.8 | 14.5 | 0.00 | 0.00 | 0.00 | 59 | 1013.7 |
| 20260905215147 | 30 | 313 | 4.8 | 14.5 | 0.00 | 0.00 | 0.00 | 58 | 1013.7 |
| 20260905214905 | 30 | 74 | 4.8 | 20.9 | 0.00 | 0.00 | 0.00 | 58 | 1013.9 |
| 20260905214143 | 30 | 26 | 6.4 | 20.9 | 0.00 | 0.00 | 0.00 | 57 | 1013.9 |
| 20260905213642 | 30 | 88 | 4.8 | 17.7 | 0.00 | 0.00 | 0.00 | 59 | 1014.0 |
| 20260905213141 | 30 | 80 | 6.4 | 22.5 | 0.00 | 0.00 | 0.00 | 59 | 1014.0 |
| 20260905212640 | 30 | 309 | 6.4 | 22.5 | 0.00 | 0.00 | 0.00 | 59 | 1014.1 |
| 20260905212142 | 30 | 123 | 4.8 | 14.5 | 0.00 | 0.00 | 0.00 | 60 | 1014.1 |
| 20260905211640 | 30 | 324 | 4.8 | 17.7 | 0.00 | 0.00 | 0.00 | 61 | 1014.0 |
| 20260905211138 | 29 | 265 | 4.8 | 17.7 | 0.00 | 0.00 | 0.00 | 61 | 1013.9 |
| 20260905210640 | 29 | 84 | 6.4 | 20.9 | 0.00 | 0.00 | 0.00 | 62 | 1014.0 |
| 20260905210139 | 29 | 346 | 8.0 | 20.9 | 0.00 | 0.00 | 0.00 | 62 | 1014.3 |
| 20260905205637 | 29 | 74 | 9.7 | 20.9 | 0.00 | 0.00 | 0.00 | 62 | 1014.5 |
| 20260905205406 | 29 | 88 | 6.4 | 17.7 | 0.00 | 0.00 | 0.00 | 63 | 1014.8 |
| 20260905204628 | 29 | 71 | 4.8 | 17.7 | 0.00 | 0.00 | 0.00 | 63 | 1014.9 |
| 20260905204124 | 29 | 53 | 3.2 | 12.9 | 0.00 | 0.00 | 0.00 | 65 | 1015.0 |
| 20260905203622 | 29 | 12 | 3.2 | 11.3 | 0.00 | 0.00 | 0.00 | 64 | 1015.1 |
| 20260905203120 | 28 | 114 | 3.2 | 11.3 | 0.00 | 0.00 | 0.00 | 65 | 1015.2 |
| 20260905202619 | 28 | 88 | 3.2 | 12.9 | 0.00 | 0.00 | 0.00 | 66 | 1015.2 |
| 20260905202116 | 28 | 115 | 3.2 | 12.9 | 0.00 | 0.00 | 0.00 | 66 | 1015.2 |
| 20260905201618 | 28 | 157 | 3.2 | 14.5 | 0.00 | 0.00 | 0.00 | 65 | 1015.3 |
| 20260905201117 | 28 | 92 | 3.2 | 14.5 | 0.00 | 0.00 | 0.00 | 65 | 1015.5 |
| 20260905200614 | 28 | 274 | 1.6 | 9.7 | 0.00 | 0.00 | 0.00 | 68 | 1015.6 |
| 20260905200335 | 28 | 167 | 3.2 | 9.7 | 0.00 | 0.00 | 0.00 | 68 | 1015.8 |
| 20260905195615 | 28 | 339 | 3.2 | 12.9 | 0.00 | 0.00 | 0.00 | 66 | 1015.8 |
| 20260905195112 | 28 | 165 | 3.2 | 12.9 | 0.00 | 0.00 | 0.00 | 66 | 1015.8 |
| 20260905195055 | 28 | 107 | 3.2 | 9.7 | 0.00 | 0.00 | 0.00 | 69 | 1015.9 |
| 20260905194112 | 28 | 318 | 3.2 | 11.3 | 0.00 | 0.00 | 0.00 | 67 | 1016.0 |
| 20260905193614 | 28 | 87 | 3.2 | 11.3 | 0.00 | 0.00 | 0.00 | 67 | 1016.0 |
| 20260905193112 | 27 | 202 | 3.2 | 8.0 | 0.00 | 0.00 | 0.00 | 70 | 1016.0 |
| 20260905192611 | 27 | 161 | 4.8 | 9.7 | 0.00 | 0.00 | 0.00 | 68 | 1016.1 |
| 20260905192105 | 27 | 189 | 3.2 | 9.7 | 0.00 | 0.00 | 0.00 | 69 | 1016.1 |
| 20260905191824 | 27 | 79 | 1.6 | 6.4 | 0.00 | 0.00 | 0.00 | 69 | 1016.0 |
| 20260905191054 | 27 | 322 | 3.2 | 9.7 | 0.00 | 0.00 | 0.00 | 69 | 1016.0 |
| 20260905190554 | 27 | 9 | 1.6 | 9.7 | 0.00 | 0.00 | 0.00 | 69 | 1016.1 |
| 20260905190107 | 27 | 153 | 1.6 | 6.4 | 0.00 | 0.00 | 0.00 | 69 | 1016.0 |
| 20260905185554 | 27 | 159 | 3.2 | 9.7 | 0.00 | 0.00 | 0.00 | 70 | 1016.1 |
| 20260905185058 | 27 | 169 | 3.2 | 9.7 | 0.00 | 0.00 | 0.00 | 71 | 1016.2 |
| 20260905184554 | 27 | 248 | 3.2 | 12.9 | 0.00 | 0.00 | 0.00 | 70 | 1016.1 |
| 20260905184055 | 27 | 84 | 3.2 | 12.9 | 0.00 | 0.00 | 0.00 | 73 | 1016.1 |
| 20260905183554 | 26 | 314 | 3.2 | 11.3 | 0.00 | 0.00 | 0.00 | 73 | 1016.2 |
| 20260905183052 | 26 | 123 | 1.6 | 11.3 | 0.00 | 0.00 | 0.00 | 74 | 1016.2 |
| 20260905182550 | 26 | 132 | 1.6 | 3.2 | 0.00 | 0.00 | 0.00 | 75 | 1016.2 |
| 20260905182048 | 26 | 216 | 1.6 | 8.0 | 0.00 | 0.00 | 0.00 | 76 | 1016.3 |
| 20260905181546 | 26 | 325 | 1.6 | 8.0 | 0.00 | 0.00 | 0.00 | 76 | 1016.3 |
| 20260905181047 | 26 | 329 | 1.6 | 8.0 | 0.00 | 0.00 | 0.00 | 76 | 1016.3 |
| 20260905180547 | 25 | 108 | 3.2 | 11.3 | 0.00 | 0.00 | 0.00 | 78 | 1016.4 |
| 20260905180044 | 25 | 178 | 3.2 | 11.3 | 0.00 | 0.00 | 0.00 | 77 | 1016.4 |
| 20260905175539 | 25 | 145 | 1.6 | 4.8 | 0.00 | 0.00 | 0.00 | 79 | 1016.6 |
| 20260905175034 | 25 | 60 | 1.6 | 9.7 | 0.00 | 0.00 | 0.00 | 78 | 1016.5 |
| 20260905174534 | 25 | 88 | 3.2 | 9.7 | 0.00 | 0.00 | 0.00 | 77 | 1016.6 |
| 20260905174035 | 26 | 57 | 3.2 | 8.0 | 0.00 | 0.00 | 0.00 | 76 | 1016.8 |